Wind_Speed
6 7 8 8 8 8 8 8 9 10 10 10 11 10 10 10 10 9 8 8 8 8 7 7 6 5 5 5 4 3 3 2 2 2 3 3 3 3 4 4 3 3 2
6 7 7 8 8 9 9 9 9 9 10 10 9 9 10 10 9 8 8 8 8 7 7 6 5 4 4 4 3 3 2 2 1 2 3 3 2 3 3 3 3 3 2
7 7 7 8 9 9 9 10 10 9 10 10 9 9 10 9 9 9 8 8 7 7 6 5 4 4 3 3 2 1 1 0 0 2 2 2 1 2 2 2 1 2 2
8 8 8 8 9 9 10 10 10 9 9 9 9 9 9 9 9 8 8 7 7 6 5 4 3 3 2 2 1 1 1 2 0 2 2 2 1 2 2 2 2 2 2
8 8 8 8 9 10 10 10 10 10 9 9 9 9 8 8 8 8 7 6 6 5 4 3 2 2 2 1 1 2 2 3 2 2 2 2 2 3 3 3 2 2 3
9 9 10 9 9 10 10 10 10 10 9 9 9 8 8 7 8 7 6 6 5 4 3 2 1 1 1 1 1 2 2 2 1 1 2 2 2 3 3 3 2 3 4
9 10 10 9 9 9 9 10 11 10 9 8 7 7 7 7 6 6 6 5 5 3 2 2 1 1 1 1 1 2 1 1 1 1 1 1 2 2 2 2 2 3 4
9 9 9 9 9 9 9 10 10 9 9 8 7 6 7 7 6 5 5 5 4 3 2 1 1 1 1 1 1 2 2 2 1 1 2 2 1 2 2 3 3 3 3
9 9 9 9 9 9 9 9 9 9 8 7 6 5 5 5 6 5 4 4 4 3 2 1 0 0 1 1 1 2 2 2 2 2 2 1 1 1 2 3 3 4 3
9 9 9 10 9 9 9 8 8 8 8 7 6 5 5 5 5 5 4 3 3 3 2 1 0 1 1 2 2 2 2 3 2 2 2 2 2 2 2 3 4 4 4
8 9 9 9 9 9 9 8 8 7 7 6 6 5 4 4 5 5 4 3 3 2 1 0 1 1 1 2 2 2 2 2 3 3 3 3 3 3 4 4 4 4 4
9 10 10 9 9 9 9 8 7 6 6 5 5 4 4 4 4 4 4 3 3 2 0 1 1 1 2 2 3 2 2 2 3 3 4 4 3 3 4 4 4 4 4
12 11 11 10 9 9 9 8 7 6 5 5 4 4 4 4 4 5 4 3 2 1 0 1 1 2 2 2 2 3 2 3 3 3 4 4 4 4 4 4 4 4 5
13 12 11 11 10 9 8 7 7 6 6 6 5 5 5 5 5 5 5 4 3 2 2 2 2 2 3 2 2 2 2 3 3 3 4 4 5 5 5 5 5 5 5
12 12 11 10 10 9 8 7 6 6 5 5 5 6 5 5 5 5 5 3 2 2 2 2 3 3 3 2 2 2 2 2 2 3 4 5 5 6 6 6 5 6 5
10 11 11 10 10 9 8 7 6 6 5 5 5 6 6 5 5 5 4 3 2 2 2 2 2 3 3 3 3 2 3 3 3 3 4 5 6 6 5 5 5 5 6
9 9 9 9 9 9 8 8 7 6 7 7 7 6 6 7 6 5 4 3 3 3 2 2 3 3 3 3 3 3 3 4 4 5 5 6 6 6 5 5 5 5 6
8 8 8 8 8 8 8 8 8 8 7 7 7 7 6 6 5 4 3 3 3 3 2 2 2 2 2 2 3 3 3 4 5 6 6 7 6 6 6 5 5 6 6
8 8 8 8 7 7 8 7 7 7 7 7 6 5 5 5 4 4 3 3 3 3 2 2 3 2 2 2 2 3 4 5 6 7 7 7 7 6 6 6 6 7 7
7 7 7 7 7 7 7 7 6 7 6 6 6 5 5 5 4 4 4 3 3 3 2 2 2 2 2 2 3 3 4 5 6 7 7 7 7 7 7 7 7 7 7
7 6 6 6 6 7 6 6 6 6 6 5 5 5 5 4 4 4 4 4 3 3 3 3 3 2 2 3 4 5 5 6 6 7 8 8 7 7 7 7 7 7 8
6 6 6 6 6 6 6 6 6 6 5 5 5 4 4 3 3 3 3 2 3 3 3 4 4 4 3 4 4 5 6 6 7 8 8 8 8 8 8 8 8 9 9
5 5 5 5 5 5 5 5 5 5 5 5 5 4 4 3 3 3 3 3 2 3 3 3 4 4 4 4 5 5 6 7 7 8 8 8 8 8 9 9 9 10 10
3 4 4 4 4 4 4 4 4 4 4 4 4 4 4 3 3 3 3 3 2 2 2 3 4 5 5 5 6 6 7 8 9 9 9 9 9 9 9 10 10 10 10
2 2 3 3 3 3 3 3 3 3 4 4 4 4 3 3 3 3 2 3 3 3 3 4 5 5 5 6 7 7 8 9 9 10 10 10 10 10 11 11 11 11 11
1 0 1 1 1 2 2 2 2 2 2 3 3 3 3 3 3 3 3 4 4 5 5 5 5 6 6 7 7 8 8 9 9 10 10 10 11 11 12 12 12 12 12
Wind_Direction
130 136 143 142 139 137 138 138 135 132 129 128 126 127 130 132 136 138 137 128 124 124 120 118 112 116 110 110 114 113 126 152 162 169 185 200 200 201 213 232 237 245 224
139 137 141 142 142 141 141 138 137 135 132 131 128 130 135 135 135 139 137 131 127 126 124 120 119 123 116 111 102 95 116 113 155 193 192 199 206 216 230 242 242 226 228
138 139 139 138 144 143 141 140 138 134 134 133 130 134 136 137 139 138 138 134 136 131 130 126 122 121 117 109 95 82 101 354 321 211 220 220 224 245 250 255 258 232 249
130 136 138 140 141 140 142 140 139 136 136 135 134 135 133 131 135 139 143 145 146 141 135 125 118 110 97 87 80 73 26 351 335 197 217 230 235 249 246 252 244 247 264
124 134 137 139 140 142 144 142 139 138 138 138 138 135 132 131 134 141 143 151 151 153 146 135 128 110 91 77 79 90 68 51 107 173 215 244 258 259 256 251 236 258 259
126 133 137 141 144 143 144 142 142 143 141 141 139 135 131 129 132 140 145 151 148 152 153 152 142 109 94 67 58 80 88 68 99 203 236 245 258 265 271 259 253 260 254
126 134 136 136 141 149 148 141 141 143 142 142 141 138 138 133 133 143 144 141 146 144 142 156 155 133 64 42 40 34 34 33 12 325 294 249 251 276 283 265 251 256 256
124 130 131 134 135 140 145 145 143 142 142 142 143 137 142 142 142 140 140 140 147 152 157 134 117 91 45 29 28 2 357 343 333 318 304 291 292 292 283 269 264 271 278
128 134 134 135 136 140 144 145 146 146 147 143 137 134 139 141 142 139 138 136 139 144 143 130 109 338 358 7 5 2 358 337 329 321 310 316 321 294 273 271 277 278 285
126 132 137 137 138 142 142 142 145 146 150 148 142 134 139 143 147 150 143 144 150 150 147 150 304 302 336 2 348 349 342 339 352 350 335 325 316 300 280 284 273 275 285
122 130 135 137 135 136 138 140 144 147 152 148 146 142 142 151 156 160 158 150 147 152 160 1 349 337 354 360 344 339 339 352 4 354 343 331 334 318 305 291 283 290 286
114 126 130 133 130 131 134 133 137 145 149 144 145 145 145 149 162 163 149 147 149 149 154 357 348 352 339 336 337 346 2 5 354 349 346 341 332 320 316 301 292 302 296
106 119 124 124 124 127 130 129 129 134 137 138 138 144 145 145 143 149 143 129 132 132 66 23 8 7 356 344 353 2 5 6 351 347 349 351 349 340 331 330 319 306 301
105 108 114 115 116 118 122 122 124 125 124 126 126 128 138 140 142 140 131 119 110 94 65 22 16 18 18 5 348 358 5 355 354 356 357 359 350 340 333 327 321 306 301
107 107 109 110 113 114 114 116 119 117 116 119 120 124 130 133 140 138 126 120 112 91 63 46 28 26 16 2 351 357 354 351 355 353 348 348 341 334 332 327 320 313 307
107 108 111 111 112 111 110 111 110 110 111 106 102 108 118 123 129 123 118 112 102 91 93 63 33 17 6 14 17 7 2 358 349 345 341 337 332 327 323 320 320 320 311
108 109 108 108 105 102 99 97 97 98 99 99 101 105 112 115 111 111 109 95 91 92 82 54 52 38 19 10 9 11 8 3 2 351 339 339 341 339 332 321 314 315 312
105 110 110 108 106 102 97 94 96 98 97 98 100 100 101 103 106 105 104 96 89 88 85 70 61 49 31 15 15 9 358 349 349 345 343 340 341 340 336 324 312 310 308
99 103 106 108 108 104 102 97 92 92 95 93 96 97 96 91 96 105 112 94 93 99 98 86 81 61 42 24 7 352 344 341 340 342 341 338 340 339 337 327 316 311 307
97 101 101 104 105 106 103 98 93 88 89 86 92 93 98 94 88 85 80 85 95 97 95 84 65 58 33 7 355 346 337 339 339 343 342 341 340 340 336 334 324 318 312
95 96 98 100 99 99 97 93 88 85 81 81 83 87 90 98 92 81 75 68 60 56 53 42 25 12 358 356 353 351 349 345 340 338 337 337 335 331 328 324 321 316 313
93 93 94 94 95 96 93 88 82 79 75 74 71 80 85 91 84 73 63 64 50 41 38 31 20 3 352 352 349 347 349 345 341 336 332 330 329 327 322 319 317 315 315
96 94 91 89 88 92 94 85 79 75 74 76 75 76 70 65 58 56 59 55 52 47 36 17 6 357 353 346 344 343 346 343 335 333 328 327 328 329 328 324 321 317 315
100 100 92 89 87 87 89 81 78 77 73 72 69 64 65 55 49 44 42 29 20 15 8 359 353 349 348 347 344 340 339 339 339 336 333 331 329 329 328 325 321 317 315
80 111 95 83 78 75 75 73 79 76 67 63 56 49 54 47 38 30 16 8 2 355 348 342 341 344 342 336 333 332 333 335 337 337 337 335 335 334 329 326 322 317 315
28 139 78 49 64 68 67 67 73 55 46 48 42 35 35 25 13 12 2 360 355 345 339 336 334 333 329 327 325 325 330 333 335 337 336 333 330 329 329 329 327 327 324
Height
5881 5881 5881 5882 5883 5883 5884 5884 5885 5886 5886 5887 5887 5888 5889 5889 5890 5890 5891 5891 5892 5893 5894 5894 5894 5894 5894 5894 5894 5894 5894 5894 5894 5894 5894 5894 5895 5895 5895 5896 5896 5896 5895
5881 5881 5882 5882 5883 5884 5885 5886 5886 5887 5887 5888 5888 5889 5889 5890 5891 5891 5892 5892 5893 5894 5894 5895 5895 5895 5895 5895 5895 5894 5893 5893 5893 5894 5894 5894 5895 5895 5895 5895 5895 5895 5895
5882 5882 5882 5883 5883 5884 5885 5886 5887 5888 5888 5889 5889 5889 5890 5891 5891 5892 5893 5893 5894 5894 5895 5895 5895 5895 5895 5895 5895 5894 5893 5893 5893 5893 5894 5894 5895 5895 5895 5894 5894 5895 5895
5882 5882 5883 5883 5884 5885 5886 5887 5888 5889 5889 5890 5890 5890 5891 5891 5892 5893 5893 5894 5895 5895 5895 5896 5896 5896 5895 5895 5895 5894 5894 5892 5891 5892 5894 5894 5895 5895 5895 5895 5894 5895 5895
5883 5883 5883 5884 5885 5886 5887 5888 5889 5889 5890 5890 5891 5891 5892 5892 5893 5893 5894 5895 5895 5896 5896 5896 5896 5896 5896 5896 5895 5895 5894 5893 5891 5893 5894 5894 5895 5895 5895 5894 5894 5895 5895
5884 5884 5884 5885 5886 5887 5888 5889 5889 5890 5891 5891 5892 5892 5893 5893 5894 5894 5895 5895 5896 5896 5897 5897 5897 5896 5896 5896 5896 5895 5895 5894 5894 5894 5894 5894 5894 5894 5894 5894 5894 5894 5894
5884 5885 5886 5886 5887 5888 5888 5889 5890 5891 5892 5892 5893 5893 5893 5893 5894 5895 5895 5896 5896 5897 5897 5897 5897 5897 5897 5896 5896 5896 5895 5895 5895 5894 5894 5894 5894 5894 5894 5893 5894 5894 5893
5885 5886 5886 5887 5888 5889 5889 5890 5891 5892 5893 5893 5893 5894 5894 5894 5895 5896 5896 5897 5897 5897 5898 5898 5897 5897 5897 5897 5897 5896 5896 5895 5895 5895 5894 5894 5894 5893 5893 5893 5893 5893 5893
5886 5887 5888 5888 5889 5890 5891 5891 5892 5892 5893 5894 5894 5894 5895 5895 5896 5896 5897 5897 5898 5898 5898 5898 5898 5898 5898 5897 5897 5897 5896 5896 5895 5894 5894 5894 5894 5893 5893 5893 5892 5892 5892
5888 5888 5889 5890 5891 5891 5892 5892 5893 5893 5894 5894 5895 5895 5896 5896 5896 5897 5897 5898 5898 5898 5898 5898 5898 5898 5898 5897 5897 5897 5896 5895 5895 5894 5894 5894 5894 5893 5893 5892 5891 5891 5891
5889 5890 5891 5891 5892 5893 5893 5894 5894 5894 5895 5895 5896 5896 5896 5896 5897 5897 5898 5898 5898 5899 5899 5899 5898 5898 5898 5897 5897 5897 5896 5896 5895 5894 5894 5894 5893 5893 5892 5891 5891 5890 5890
5890 5891 5892 5893 5893 5894 5894 5895 5895 5895 5895 5896 5896 5896 5897 5897 5898 5898 5898 5899 5899 5899 5899 5899 5898 5898 5898 5897 5897 5896 5896 5896 5895 5894 5894 5893 5892 5892 5891 5890 5890 5890 5889
5892 5892 5893 5894 5895 5896 5896 5896 5896 5896 5896 5897 5897 5897 5897 5898 5898 5899 5899 5899 5899 5899 5899 5899 5899 5899 5898 5897 5897 5897 5896 5895 5895 5894 5893 5893 5892 5891 5890 5890 5889 5889 5888
5896 5896 5896 5897 5897 5897 5898 5898 5898 5898 5898 5898 5898 5898 5898 5898 5899 5899 5899 5900 5900 5900 5899 5899 5899 5899 5898 5897 5897 5897 5896 5895 5895 5894 5893 5892 5892 5891 5890 5889 5888 5888 5887
5899 5899 5899 5899 5900 5900 5900 5900 5899 5899 5899 5899 5899 5899 5899 5899 5899 5900 5900 5901 5900 5900 5900 5900 5900 5899 5898 5898 5897 5897 5896 5895 5894 5894 5893 5892 5891 5890 5889 5888 5888 5887 5886
5901 5901 5901 5901 5901 5901 5901 5901 5901 5901 5901 5900 5900 5900 5900 5900 5900 5901 5901 5901 5901 5901 5901 5901 5900 5899 5899 5898 5898 5897 5896 5895 5894 5893 5892 5891 5890 5889 5888 5887 5887 5886 5885
5903 5903 5903 5903 5903 5903 5903 5903 5903 5902 5902 5902 5901 5901 5901 5901 5901 5902 5902 5902 5902 5902 5901 5901 5900 5900 5900 5899 5898 5897 5897 5896 5895 5893 5892 5891 5890 5888 5887 5887 5886 5885 5884
5905 5905 5905 5905 5905 5905 5905 5905 5904 5904 5904 5903 5903 5903 5903 5902 5902 5903 5903 5903 5902 5902 5902 5902 5901 5901 5900 5899 5898 5897 5897 5896 5895 5893 5892 5891 5889 5888 5887 5886 5885 5884 5883
5907 5907 5907 5907 5907 5907 5906 5906 5906 5906 5905 5905 5905 5904 5904 5904 5903 5904 5904 5903 5903 5903 5903 5902 5901 5901 5900 5899 5898 5898 5897 5896 5894 5893 5892 5890 5889 5887 5886 5885 5884 5883 5882
5909 5909 5909 5909 5909 5908 5908 5908 5907 5907 5907 5906 5906 5906 5906 5905 5905 5905 5905 5904 5904 5903 5903 5902 5902 5901 5900 5899 5899 5898 5897 5896 5894 5893 5892 5890 5889 5887 5886 5885 5883 5882 5881
5911 5911 5910 5910 5910 5909 5909 5909 5909 5908 5908 5908 5907 5907 5906 5906 5906 5906 5906 5905 5905 5904 5904 5903 5902 5901 5900 5900 5899 5898 5897 5896 5894 5893 5891 5890 5889 5887 5885 5884 5882 5881 5880
5912 5912 5912 5911 5911 5911 5910 5910 5910 5909 5909 5909 5908 5908 5907 5907 5907 5907 5906 5906 5905 5905 5904 5904 5903 5902 5901 5900 5899 5898 5897 5896 5894 5893 5891 5890 5888 5886 5885 5883 5882 5880 5878
5914 5913 5913 5913 5912 5912 5912 5911 5911 5910 5910 5910 5909 5909 5908 5908 5908 5907 5907 5906 5905 5905 5904 5904 5903 5902 5901 5900 5899 5898 5897 5896 5894 5892 5891 5889 5887 5886 5884 5882 5881 5879 5877
5915 5914 5914 5914 5913 5913 5913 5912 5912 5911 5911 5911 5910 5909 5909 5909 5908 5908 5907 5906 5906 5905 5905 5904 5903 5902 5901 5900 5899 5897 5896 5895 5893 5891 5890 5888 5886 5884 5883 5881 5879 5877 5875
5916 5915 5915 5915 5914 5914 5914 5913 5913 5912 5912 5911 5911 5910 5910 5909 5908 5908 5907 5906 5906 5905 5904 5904 5903 5902 5900 5899 5898 5897 5895 5894 5892 5890 5889 5887 5885 5883 5882 5879 5878 5876 5874
5916 5916 5915 5915 5915 5915 5914 5914 5913 5913 5912 5912 5911 5910 5910 5909 5908 5908 5907 5906 5906 5905 5904 5903 5902 5901 5900 5899 5897 5896 5894 5893 5891 5889 5887 5886 5884 5882 5880 5878 5876 5874 5872